Weather in Kholm

Russia / Yaroslavl Oblast     58°17′13″N   39°31′00″E
temp.,
°C
wind,
m/s
gust,
m/s
humid.,
%
clouds,
%
prec.,
mm/h
press.,
hPa
HPBL,
m
22 april, thu
thu2200:00+2ssw3995100 0.0 1009446
03:00+2s3896100 0.0 1010332
06:00+3s41091100 0.0 1011370
09:00+6s5984100 0.2 1011668
12:00+9ssw51074100 0.4 10111242
15:00+7ssw498469 0.8 1013941
18:00+10ssw37725 0.1 1013492
21:00+6s39935 0.1 1014194
23 april, fri
fri2300:00+5sse3109350 0.0 1014229
03:00+5sse3119422 0.0 1014255
06:00+5sse4129363 0.0 1014357
09:00+10sse5117745 0.0 1013614
12:00+14ssw6136280 0.4 10131843
15:00+16s61253100 1.1 10122239
18:00+13ssw61261100 1.3 10121251
21:00+7ese119192 1.8 101396
24 april, sat
sat2400:00+6ene119689 0.1 101214
03:00+6se3119051 0.2 1009372
06:00+7se5148599 0.0 1007622
09:00+11se6147492 0.2 10051471
12:00+12sse7137291 1.0 10031744
15:00+3w4896100 2.3 1006400
18:00+2wnw31098100 2.2 1006418
21:00+2wnw41097100 4.2 1005504
25 april, sun
sun2500:00+2wnw3997100 1.2 1005503
03:00+2w41093100 1.4 1005585
06:00+1w31085100 0.0 1005520
09:00+3w4874100 0.0 1005857
12:00+6w5862100 0.1 10051649
15:00+6w576091 0.6 10061642
18:00+5w366471 0.1 10071034
21:00+2ssw26825 0.2 1007125
26 april, mon
mon2600:00+1sw39875 0.0 1008270
03:000sw39955 0.0 1008315
06:000sw39928 0.0 1009368
09:00+4sw466741 0.0 10091041
12:00+6sw4755100 0.8 10081674
15:00+6wsw566286 1.6 10091379
18:00+4sw467013 0.1 10091083
21:00+1ssw23855 0.1 100854